FW0857 Weather Reports


time (UTC)temp
C
wind
direction
speed
KPH
gust
KPH
rain 1hr
cm
rain 24hr
cm
rain mn
cm
humidity
%
barometer
mb
20260503213046 23 302 3.2 19.3 0.00 0.00 0.00 40 993.2
20260503211541 22 214 11.3 20.9 0.00 0.00 0.00 39 993.2
20260503210040 22 232 14.5 22.5 0.00 0.00 0.00 41 993.3
20260503203052 21 247 9.7 20.9 0.00 0.00 0.00 42 993.8
20260503201536 21 243 12.9 32.2 0.00 0.00 0.00 42 994.1
20260503200034 22 210 14.5 24.1 0.00 0.00 0.00 41 993.9
20260503193030 21 234 16.1 25.7 0.00 0.00 0.00 44 994.2
20260503191530 21 229 8.0 25.7 0.00 0.00 0.00 47 994.4
20260503190023 20 225 19.3 30.6 0.00 0.00 0.00 47 994.8
20260503183019 20 221 14.5 30.6 0.00 0.00 0.00 49 995.2
20260503181515 20 237 19.3 30.6 0.00 0.00 0.00 50 995.4
20260503180013 19 215 16.1 33.8 0.00 0.00 0.00 52 996.0
20260503173009 20 215 4.8 19.3 0.00 0.00 0.00 55 996.8
20260503171505 18 230 8.0 20.9 0.00 0.00 0.00 57 996.9
20260503140107 11 278 1.6 11.3 0.00 0.00 0.00 77 998.0
20260503081519 8 111 8.0 11.3 0.00 0.00 0.00 86 995.9
20260503071508 10 106 6.4 12.9 0.00 0.00 0.00 87 996.2
20260503060132 10 111 4.8 11.3 0.00 0.00 0.00 86 996.0
20260503054657 11 117 6.4 12.9 0.00 0.00 0.00 86 996.2
20260503053059 11 116 6.4 9.7 0.00 0.00 0.00 85 996.2
20260503051556 11 117 6.4 11.3 0.00 0.00 0.00 85 996.0
20260503050053 11 117 4.8 9.7 0.00 0.00 0.00 84 996.0
20260503044651 12 116 6.4 9.7 0.00 0.00 0.00 82 996.0
20260503043050 12 142 3.2 8.0 0.00 0.00 0.00 81 995.8
20260503041547 12 127 3.2 8.0 0.00 0.00 0.00 77 995.8
20260503040056 13 115 6.4 11.3 0.00 0.00 0.00 74 995.9
20260503034644 13 145 6.4 14.5 0.00 0.00 0.00 71 995.6
20260503033041 13 207 4.8 9.7 0.00 0.00 0.00 74 995.2
20260503031536 14 170 0.0 8.0 0.00 0.00 0.00 71 995.0
20260503030044 15 159 8.0 11.3 0.00 0.00 0.00 66 994.8
20260503024632 17 178 6.4 16.1 0.00 0.00 0.00 51 994.4
20260503023032 16 205 8.0 16.1 0.00 0.00 0.00 49 993.5
20260503021530 15 225 0.0 4.8 0.00 0.00 0.00 58 993.2
20260503020030 16 225 0.0 3.2 0.00 0.00 0.00 57 992.9
20260503014631 17 225 0.0 3.2 0.00 0.00 0.00 50 992.3
20260503013035 18 225 1.6 6.4 0.00 0.00 0.00 42 992.2
20260503011530 19 254 3.2 12.9 0.00 0.00 0.00 41 992.0
20260503010035 20 286 0.0 8.0 0.00 0.00 0.00 40 992.2
20260503004629 21 238 0.0 11.3 0.00 0.00 0.00 39 991.9
20260503003031 20 269 1.6 9.7 0.00 0.00 0.00 40 991.8
20260503001529 21 258 0.0 12.9 0.00 0.00 0.00 38 991.9
20260503000028 21 300 0.0 9.7 0.00 0.00 0.00 38 991.6
20260502234628 22 227 1.6 9.7 0.00 0.00 0.00 36 991.6
20260502233027 22 224 3.2 20.9 0.00 0.00 0.00 37 991.7
20260502231526 21 240 4.8 16.1 0.00 0.00 0.00 37 991.7
20260502230029 21 238 3.2 16.1 0.00 0.00 0.00 37 992.0
20260502224622 22 212 3.2 17.7 0.00 0.00 0.00 37 992.3
20260502223021 22 236 8.0 12.9 0.00 0.00 0.00 35 992.3
20260502221519 21 242 4.8 24.1 0.00 0.00 0.00 38 992.5
20260502220018 22 223 3.2 12.9 0.00 0.00 0.00 37 992.4